Location: Rowland
(34.5359°N, 79.2929°W)
Time: 17:45:25
(UTC+00:00)

S-56A Canister/Altair - Pass Details

Date: 11 October 2022
Orbit: 638 x 2494 km, 38.9° (Epoch: 06 December)

Event Time Altitude Azimuth Distance (km) Brightness Sun altitude
Exits shadow 07:18:05 31° 84° (E) 2,322 10.1 -48.7°
Drops below altitude 10° 07:21:34 10° 91° (E) 3,280 11.1 -48.1°
Sets 07:23:58 0° 94° (E) 4,037 11.7 -47.7°
